Regional Weather Roundup
Issued by NWS

Home | Current Version | Previous Version | Graphics & Text | Print | Product List | Glossary On
Versions: 1 2 3 4 5 6 7 8 9 10 11 12 13 14 15 16 17 18 19 20 21 22 23 24 25 26 27 28 29 30 31 32 33 34 35 36 37 38 39 40 41 42 43 44 45 46 47 48 49 50
345
ASUS43 KFSD 211310
RWRSD

WEATHER ROUNDUP FOR SOUTH DAKOTA
NATIONAL WEATHER SERVICE SIOUX FALLS SD
800 AM CDT THU MAY 21 2015

NOTE: "FAIR" INDICATES FEW OR NO CLOUDS BELOW 12,000 FEET WITH NO
SIGNIFICANT WEATHER AND/OR OBSTRUCTIONS TO VISIBILITY.


SDZ001>005-009-010-012>017-211400-
NORTHWEST AND NORTH CENTRAL SOUTH DAKOTA

CITY           SKY/WX    TMP DP  RH WIND       PRES   REMARKS
BUFFALO          N/A     44  34  67 CALM      30.19R
FAITH            N/A     47  34  60 NW9       30.25R
MOBRIDGE       SUNNY     50  36  58 NW6       30.21R
$$

SDZ012>016-024>037-041>051-057-063-072>074-211400-
SOUTHWEST AND SOUTH CENTRAL SOUTH DAKOTA

CITY           SKY/WX    TMP DP  RH WIND       PRES   REMARKS
RAPID CTY ARPT SUNNY     41  34  76 CALM      30.27R
PIERRE         SUNNY     44  38  79 SW8       30.24R
CUSTER         SUNNY     31  28  89 CALM      30.25S
ELLSWORTH AFB  SUNNY     41  33  72 SW6       30.26R
PHILIP         SUNNY     41  37  86 W8        30.28R
PINE RIDGE     SUNNY     31  28  89 CALM      30.29R
SPEARFISH      FAIR      37  28  70 CALM      30.25S
WINNER         FAIR      47  36  65 W9        30.28R
$$

SDZ004>011-016>023-039-040-211400-
NORTHEAST SOUTH DAKOTA

CITY           SKY/WX    TMP DP  RH WIND       PRES   REMARKS
ABERDEEN       SUNNY     53  36  52 NW12      30.17R
WATERTOWN      SUNNY     52  34  50 NW14      30.15R
BROOKINGS      SUNNY     52  36  54 W13       30.18S
SISSETON         N/A     55  38  52 N17       30.12R
$$

SDZ017-020-022-023-036>040-048>070-211400-
SOUTHEAST SOUTH DAKOTA

CITY           SKY/WX    TMP DP  RH WIND       PRES   REMARKS
SIOUX FALLS    SUNNY     51  36  56 NW12      30.20R
HURON          SUNNY     50  39  66 W8        30.21R
CHAMBERLAIN    SUNNY     45  37  75 W9        30.26S
MITCHELL       SUNNY     49  40  71 W15       30.23R
YANKTON        SUNNY     48  37  66 W14       30.23F
$$

ABBREVIATIONS USED IN REMARKS
   TC - TEMPERATURE IN CELSIUS
  WCI - WIND CHILL INDEX
   HX - HEAT INDEX
  VSB - VISIBILITY




USA.gov is the U.S. government's official web portal to all federal, state and local government web resources and services.